Home   Weather   Mount Pearl   Past weeks

Flag for Canada Past Weather in Mount Pearl, Newfoundland and Labrador, Canada — Yesterday and Last 2 Weeks

Now
50 °F

Scattered clouds.


Feels Like: 45 °F
Forecast: 40 / 47 °F
Wind: 15 mph from Northwest

Location: St. John's

Current Time: Sep 26, 2016 at 2:59:50 PM

Latest Report: Sep 26, 2016 at 2:30 PM


Visibility: 15 mi

Pressure: 29.64 "Hg

Humidity: 71%

Dew Point: 41 °F

Location of Mount PearlLocation

Past Weather in Mount Pearl — Graph

°F

Mount Pearl Temperature Yesterday

Maximum temperature yesterday: 52 °F (at 1:30 PM)
Minimum temperature yesterday: 36 °F (at 4:30 AM)
Average temperature yesterday: 44 °F

High & Low Weather Summary for the Past Weeks

 TemperatureHumidityPressure
High73 °F (Sep 14, 1:30 PM)100% (Sep 12, 6:30 AM)30.35 "Hg (Sep 12, 6:30 AM)
Low36 °F (Sep 25, 4:30 AM)46% (Sep 13, 11:30 AM)29.57 "Hg (Sep 25, 4:30 PM)
Average54 °F82%29.93 "Hg
* Reported Sep 11 1:30 PM — Sep 26 1:30 PM, Mount Pearl, Weather by CustomWeather, © 2016

Note: Actual official high and low records may vary slightly from our data, if they occured in-between our weather recording intervals... More about our weather records

Advertising

Mount Pearl Weather History for the Previous 24 Hours

Scroll right to see more
 ConditionsComfort  
Time TempWeatherWind HumidityBarometerVisibility
1:30 PM
Mon, Sep 26
48 °FPartly sunny.18 mph76%29.65 "Hg15 mi
12:30 PM48 °FPartly sunny.17 mph76%29.64 "Hg15 mi
11:30 AM45 °FOvercast.12 mph93%29.64 "Hg15 mi
10:30 AM46 °FOvercast.16 mph82%29.63 "Hg15 mi
9:30 AM45 °FPartly sunny.15 mph87%29.62 "Hg15 mi
8:30 AM43 °FPartly sunny.18 mph93%29.59 "Hg15 mi
7:30 AM41 °FPartly sunny.15 mph93%29.59 "Hg15 mi
6:30 AM41 °FBroken clouds.10 mph93%29.59 "Hg15 mi
5:30 AM41 °FPassing clouds.8 mph87%29.58 "Hg15 mi
4:30 AM41 °FPassing clouds.14 mph87%29.57 "Hg15 mi
3:30 AM43 °FPassing clouds.9 mph87%29.57 "Hg15 mi
2:30 AM43 °FPassing clouds.12 mph87%29.57 "Hg15 mi
1:30 AM43 °FPassing clouds.12 mph87%29.58 "Hg15 mi
12:30 AM43 °FPartly cloudy.9 mph87%29.58 "Hg15 mi
11:30 PM
Sun, Sep 25
45 °FMostly cloudy.7 mph87%29.58 "Hg15 mi
10:30 PM45 °FMostly cloudy.9 mph87%29.59 "Hg15 mi
9:30 PM45 °FPassing clouds.8 mph87%29.59 "Hg15 mi
8:30 PM45 °FPassing clouds.8 mph81%29.58 "Hg15 mi
7:30 PM46 °FSprinkles. Mostly cloudy.10 mph87%29.57 "Hg15 mi
6:30 PM46 °FPassing clouds.7 mph76%29.57 "Hg15 mi
5:30 PM48 °FPartly sunny.7 mph71%29.57 "Hg15 mi
4:30 PM50 °FPartly sunny.7 mph50%29.57 "Hg15 mi
3:30 PM52 °FPassing clouds.7 mph50%29.57 "Hg15 mi
2:30 PM52 °FPassing clouds.8 mph50%29.58 "Hg15 mi
Weather by CustomWeather, © 2016

See weather overviewHow to use our weather pages